FW4639 Weather Reports


Display with metric or nautical units.
time (UTC)temp
F
wind
direction
speed
MPH
gust
MPH
rain 1hr
in
rain 24hr
in
rain mn
in
humidity
%
barometer
mb
20260508054505 53 321 0.0 0.0 0.00 0.52 0.00 97 1014.3
20260508053004 53 321 0.0 0.0 0.00 0.52 0.00 97 1014.3
20260508051501 53 321 0.0 0.0 0.00 0.52 0.00 97 1014.3
20260508050059 54 321 0.0 0.0 0.00 0.52 0.00 97 1014.2
20260508044559 54 321 0.0 0.0 0.00 0.67 0.00 97 1014.3
20260508043104 54 321 0.0 0.0 0.00 0.67 0.00 97 1014.1
20260508041615 54 321 0.0 0.0 0.00 0.67 0.00 97 1014.2
20260508040108 54 321 0.0 0.0 0.00 0.67 0.00 97 1014.1
20260508034553 54 321 0.0 0.0 0.00 0.73 0.67 97 1013.9
20260508033052 54 321 0.0 0.0 0.00 0.73 0.67 96 1013.7
20260508031554 54 321 0.0 0.0 0.00 0.73 0.67 96 1013.3
20260508030051 54 321 0.0 0.0 0.00 0.73 0.67 96 1013.5
20260508024604 54 321 0.0 0.0 0.00 0.73 0.67 96 1013.2
20260508023051 54 321 0.0 0.0 0.00 0.73 0.67 96 1013.2
20260508021548 54 321 0.0 0.0 0.00 0.73 0.67 96 1012.9
20260508020050 54 70 0.0 0.0 0.00 0.73 0.67 96 1012.9
20260508014547 54 70 0.0 0.0 0.00 0.73 0.67 96 1012.9
20260508013045 54 70 0.0 0.0 0.00 0.73 0.67 96 1012.5
20260508011553 54 331 0.0 3.0 0.01 0.73 0.67 96 1012.0
20260508010043 54 355 0.0 2.0 0.01 0.73 0.67 96 1011.8
20260508004544 54 294 0.0 1.0 0.01 0.73 0.67 95 1012.1
20260508003042 55 358 0.0 1.0 0.01 0.73 0.67 95 1011.7
20260508001542 55 125 0.0 2.0 0.00 0.72 0.66 95 1012.2
20260508000041 55 290 0.0 2.0 0.00 0.72 0.66 95 1011.6
20260507234541 55 10 0.0 3.0 0.00 0.72 0.66 95 1010.9
20260507233055 55 218 0.0 2.0 0.00 0.72 0.66 95 1010.8
20260507231540 55 331 0.0 5.0 0.00 0.72 0.66 95 1010.7
20260507230040 55 330 0.0 6.0 0.00 0.72 0.66 95 1010.8
20260507224546 55 272 0.0 4.0 0.00 0.72 0.66 95 1010.8
20260507223038 55 9 0.0 5.0 0.00 0.72 0.66 96 1010.2
20260507221537 55 2 0.0 4.0 0.00 0.72 0.66 96 1010.2
20260507220036 55 299 0.0 3.0 0.00 0.72 0.66 96 1010.4
20260507214536 55 12 0.0 3.0 0.00 0.72 0.66 96 1010.6
20260507213040 55 29 0.0 8.0 0.00 0.72 0.66 96 1010.5
20260507211535 55 285 2.0 8.0 0.00 0.72 0.66 96 1010.3
20260507210036 55 2 1.0 11.0 0.00 0.72 0.66 97 1010.2
20260507204532 55 307 2.0 11.0 0.00 0.72 0.66 97 1009.7
20260507203032 56 284 0.0 6.0 0.00 0.72 0.66 97 1009.7
20260507201528 57 352 0.0 4.0 0.00 0.72 0.66 97 1009.4
20260507200026 57 92 0.0 6.0 0.00 0.72 0.66 97 1009.5
20260507194536 57 341 0.0 9.0 0.00 0.83 0.66 97 1009.5
20260507193028 57 288 1.0 8.0 0.01 0.83 0.66 97 1009.5
20260507191531 57 65 0.0 6.0 0.01 0.83 0.66 97 1009.3
20260507190022 58 294 0.0 4.0 0.01 0.83 0.66 97 1009.7
20260507184520 58 295 2.0 8.0 0.01 0.88 0.66 97 1009.0
20260507183033 59 32 0.0 6.0 0.00 0.87 0.65 97 1009.5
20260507181515 59 279 0.0 5.0 0.00 0.87 0.65 97 1009.0
20260507180026 60 345 3.0 12.0 0.00 0.87 0.65 95 1009.0
20260507174509 65 303 2.0 6.0 0.00 0.87 0.65 94 1009.2
20260507173009 68 263 0.0 0.0 0.01 0.87 0.65 97 1009.1
20260507171507 69 278 0.0 0.0 0.01 0.87 0.65 98 1008.4
20260507170005 69 268 0.0 0.0 0.04 0.87 0.65 98 1008.2
20260507164504 68 269 0.0 0.0 0.04 0.87 0.65 98 1008.3
20260507163002 68 269 0.0 0.0 0.04 0.86 0.64 98 1008.9
20260507161606 68 279 0.0 0.0 0.04 0.86 0.64 98 1009.7
20260507160059 68 280 0.0 0.0 0.01 0.83 0.61 98 1010.0
20260507154600 68 280 0.0 0.0 0.02 0.83 0.61 98 1009.9
20260507153101 69 67 0.0 0.0 0.03 0.82 0.60 98 1009.1
20260507151600 68 50 0.0 0.0 0.04 0.82 0.60 98 1009.5
20260507150059 67 45 0.0 0.0 0.06 0.82 0.60 98 1009.8
20260507144556 67 45 0.0 0.0 0.10 0.81 0.59 98 1010.0
20260507143049 67 45 0.0 0.0 0.12 0.79 0.56 98 1010.1
20260507141612 67 45 0.0 0.0 0.14 0.78 0.56 98 1010.0
20260507140048 66 45 0.0 0.0 0.13 0.76 0.54 98 1010.2
20260507134547 66 45 0.0 0.0 0.14 0.71 0.49 98 1010.3
20260507133047 66 45 0.0 0.0 0.10 0.67 0.45 98 1010.5
20260507131545 66 45 0.0 0.0 0.08 0.64 0.42 98 1010.5
20260507130044 66 45 0.0 0.0 0.07 0.63 0.41 98 1010.3
20260507124544 66 65 0.0 0.0 0.01 0.56 0.35 98 1010.5
20260507123045 66 65 0.0 0.0 0.01 0.56 0.35 98 1010.4
20260507121544 66 65 0.0 0.0 0.00 0.56 0.34 98 1010.2
20260507120048 65 65 0.0 0.0 0.00 0.56 0.34 98 1010.5
20260507114543 65 65 0.0 1.0 0.01 0.56 0.34 98 1010.5
20260507113047 65 73 0.0 0.0 0.01 0.56 0.34 98 1010.8
20260507111540 65 73 0.0 0.0 0.01 0.56 0.34 98 1010.8
20260507110039 65 73 0.0 0.0 0.00 0.00 0.34 98 1010.9
20260507104538 65 73 0.0 0.0 0.01 0.55 0.33 98 1010.4
20260507103038 65 118 0.0 0.0 0.02 0.55 0.33 98 1010.4
20260507101537 65 117 0.0 0.0 0.02 0.55 0.33 98 1010.4
20260507100039 65 117 0.0 0.0 0.02 0.55 0.33 98 1010.6
20260507094537 65 117 0.0 0.0 0.01 0.53 0.31 98 1010.5
20260507093036 64 117 0.0 0.0 0.02 0.53 0.31 98 1010.5
20260507091535 64 117 0.0 0.0 0.06 0.53 0.31 98 1010.3
20260507090034 64 117 0.0 0.0 0.08 0.53 0.31 97 1010.5
20260507084534 64 117 0.0 0.0 0.09 0.51 0.28 97 1010.6
20260507083034 64 117 0.0 0.0 0.09 0.51 0.28 97 1010.8
20260507081542 64 77 0.0 0.0 0.06 0.47 0.25 97 1011.4
20260507080036 64 77 0.0 0.0 0.07 0.45 0.23 97 1011.6
20260507074534 64 77 0.0 0.0 0.04 0.42 0.20 97 1010.9
20260507073029 64 77 0.0 0.0 0.04 0.42 0.20 97 1011.7
20260507071534 64 77 0.0 0.0 0.03 0.41 0.19 97 1011.9
20260507070033 64 77 0.0 0.0 0.00 0.38 0.16 97 1011.4
20260507064532 64 77 0.0 0.0 0.00 0.38 0.16 97 1011.9
20260507063027 64 77 0.0 0.0 0.00 0.38 0.16 97 1011.9
20260507061532 64 77 0.0 0.0 0.00 0.38 0.16 97 1012.4
20260507060024 64 77 0.0 0.0 0.00 0.38 0.16 96 1012.6